Location: Geremba
(10.4250°N, 67.2394°W)
Time: 11:25:35
(UTC+00:00)

Delta 128 - Pass Details

Date: 23 May 2024
Orbit: 608 x 1210 km, 28.0° (Epoch: 24 June)

Event Time Altitude Azimuth Distance (km) Brightness Sun altitude
Exits shadow 09:24:35 12° 233° (SW) 2,475 6.0 -10.3°
Maximum altitude 09:30:23 67° 152° (SSE) 878 4.3 -9.0°
Drops below altitude 10° 09:35:34 10° 70° (ENE) 2,214 8.2 -7.8°
Sets 09:37:50 0° 67° (ENE) 3,061 9.9 -7.3°
